Location: North Evanston
(42.0634°N, 87.6976°W)
Time: 13:34:13
(UTC+00:00)

Vanguard 3 - Pass Details

Date: 16 May 2026
Orbit: 507 x 3204 km, 33.3° (Epoch: 6 June)

Event Time Altitude Azimuth Distance (km) Brightness Sun altitude
Rises 17:10:24 0° 210° (SSW) 5,955 11.8 65.9°
Reaches altitude 10° 17:14:28 10° 202° (SSW) 5,273 11.7 66.1°
Maximum altitude 17:28:48 36° 143° (SE) 4,241 11.9 66.8°
Drops below altitude 10° 17:45:05 10° 87° (E) 6,015 11.7 67.2°
Sets 17:50:04 0° 80° (E) 6,861 11.8 67.2°
